Location: Hains Lake
(37.8540°N, 99.8578°W)
Time: 20:09:20
(UTC+00:00)

Courier 1B Rocket - Pass Details

Date: 21 April 2021
Orbit: 920 x 1202 km, 28.2° (Epoch: 05 May)

Event Time Altitude Azimuth Distance (km) Brightness Sun altitude
Rises 03:50:25 0° 253° (WSW) 3,736 8.4 -26.6°
Reaches altitude 10° 03:53:12 10° 246° (WSW) 2,828 7.7 -27.0°
Enters shadow 03:58:16 36° 203° (SSW) 1,634 5.9 -27.7°
